Doha, Qatar

12:19 AM AST on September 28, 2016 (GMT +0300)
Doha

Weather History for 41170 - August, 2013

Change the Weather History Date:

Saturday, August 31, 2013

  Actual Average Record
Temperature  
Mean Temperature 93 °F -  
Max Temperature 99 °F - - ()
Min Temperature 87 °F - - ()
Cooling Degree Days 28    
Growing Degree Days 43 (Base 50)    
Moisture  
Dew Point 83 °F    
Average Humidity 71    
Maximum Humidity 89    
Minimum Humidity 52    
Precipitation  
Precipitation 0.00 in - - ()
Sea Level Pressure  
Sea Level Pressure 29.63 in    
Wind  
Wind Speed 6 mph ()    
Max Wind Speed 13 mph    
Max Gust Speed -    
Visibility 5.0 miles    
Events      
T = Trace of Precipitation, MM = Missing Value Source: Averaged Metar Reports

Daily Weather History Graph

Daily Weather History Graph

Search for Another Location

Airport or City:

Trip Planner

Search our weather history database for the weather conditions in past years. The results will help you decide how hot, cold, wet, or windy it might be!

Date:

Astronomy

Aug. 31, 2013 Rise Set
Actual Time 5:13 AM AST 5:53 PM AST
Civil Twilight 4:50 AM AST 6:17 PM AST
Nautical Twilight 4:23 AM AST 6:44 PM AST
Astronomical Twilight 3:55 AM AST 7:12 PM AST
Moon 12:40 AM AST (8/31) 2:19 PM AST (8/31)
Length of Visible Light 13h 26m
Length of Day
12h 39m
Waning Crescent, 23% of the Moon is Illuminated
Aug 31
Waning Crescent
Sep 5
New
Sep 12
First Quarter
Sep 19
Full
Sep 27
Last Quarter

Hourly Weather History & Observations

Time (AST) Temp. Heat Index Dew Point Humidity Pressure Visibility Wind Dir Wind Speed Gust Speed Precip Events Conditions
12:00 AM 89.6 °F 111.1 °F 82.4 °F 79% 29.62 in - Calm Calm - N/A   Clear
12:30 AM 89.6 °F 111.1 °F 82.4 °F 79% 29.62 in - Variable 1.2 mph - N/A   Clear
1:00 AM 89.6 °F 111.1 °F 82.4 °F 79% 29.59 in - Calm Calm - N/A   Clear
1:30 AM 89.6 °F 111.1 °F 82.4 °F 79% 29.59 in - WSW 3.5 mph - N/A   Clear
2:00 AM 89.6 °F 108.2 °F 80.6 °F 75% 29.59 in - WSW 4.6 mph - N/A   Clear
2:30 AM 89.6 °F 108.2 °F 80.6 °F 75% 29.59 in - West 3.5 mph - N/A   Clear
3:00 AM 90 °F - 81 °F 70% 29.60 in 6 mi WNW 4.6 mph - -   Scattered Clouds
3:00 AM 89.6 °F 108.2 °F 80.6 °F 75% 29.59 in - WNW 4.6 mph - N/A   Clear
3:30 AM 89.6 °F 111.1 °F 82.4 °F 79% 29.59 in - Variable 2.3 mph - N/A   Clear
4:00 AM 89.6 °F 108.2 °F 80.6 °F 75% 29.59 in - NNE 5.8 mph - N/A   Clear
4:30 AM 87.8 °F 108.2 °F 82.4 °F 84% 29.62 in - North 8.1 mph - N/A   Clear
5:00 AM 87.8 °F 108.2 °F 82.4 °F 84% 29.62 in 5.0 mi North 6.9 mph - N/A   Unknown
5:30 AM 87.8 °F 111.7 °F 84.2 °F 89% 29.65 in 5.0 mi North 4.6 mph - N/A   Partly Cloudy
6:00 AM 89.6 °F 111.1 °F 82.4 °F 79% 29.65 in 5.6 mi NE 5.8 mph - N/A   Partly Cloudy
6:30 AM 91.4 °F 114.3 °F 82.4 °F 75% 29.65 in 5.6 mi ENE 6.9 mph - N/A   Partly Cloudy
7:00 AM 93.2 °F 117.1 °F 82.4 °F 71% 29.65 in 6.2 mi ENE 9.2 mph - N/A   Partly Cloudy
7:30 AM 93.2 °F 117.1 °F 82.4 °F 71% 29.68 in 6.2 mi ENE 9.2 mph - N/A   Partly Cloudy
8:00 AM 95.0 °F 119.6 °F 82.4 °F 67% 29.68 in 6.2 mi ENE 11.5 mph - N/A   Partly Cloudy
9:00 AM 96 °F - 82 °F 57% 29.69 in 6 mi East 12.7 mph - -   Scattered Clouds
9:00 AM 96.8 °F 121.7 °F 82.4 °F 63% 29.68 in 6.2 mi East 12.7 mph - N/A   Partly Cloudy
9:30 AM 96.8 °F 121.7 °F 82.4 °F 63% 29.68 in 6.2 mi East 12.7 mph - N/A   Partly Cloudy
10:00 AM 96.8 °F 121.7 °F 82.4 °F 63% 29.68 in 6.2 mi East 10.4 mph - N/A   Partly Cloudy
11:00 AM 96.8 °F 126.0 °F 84.2 °F 67% 29.65 in 5.0 mi East 9.2 mph - N/A   Partly Cloudy
11:30 AM 98.6 °F 124.6 °F 82.4 °F 60% 29.65 in 5.0 mi East 9.2 mph - N/A   Partly Cloudy
12:00 PM 96.8 °F 121.7 °F 82.4 °F 63% 29.65 in 5.0 mi ENE 9.2 mph - N/A   Partly Cloudy
12:30 PM 96.8 °F 121.7 °F 82.4 °F 63% 29.62 in 5.0 mi ENE 9.2 mph - N/A   Partly Cloudy
1:00 PM 98.6 °F 124.6 °F 82.4 °F 60% 29.62 in 5.0 mi East 9.2 mph - N/A   Partly Cloudy
1:30 PM 98.6 °F 124.6 °F 82.4 °F 60% 29.62 in 5.0 mi East 10.4 mph - N/A   Partly Cloudy
2:00 PM 98.6 °F 124.6 °F 82.4 °F 60% 29.62 in 5.0 mi East 10.4 mph - N/A   Unknown
2:30 PM 98.6 °F 124.6 °F 82.4 °F 60% 29.59 in 5.0 mi East 8.1 mph - N/A   Unknown
3:00 PM 98 °F - 82 °F 52% 29.61 in 5 mi East 8.1 mph - -   Haze
3:00 PM 98.6 °F 124.6 °F 82.4 °F 60% 29.59 in 5.0 mi East 8.1 mph - N/A   Unknown
3:30 PM 98.6 °F 124.6 °F 82.4 °F 60% 29.59 in 5.0 mi East 9.2 mph - N/A   Unknown
4:00 PM 96.8 °F 126.0 °F 84.2 °F 67% 29.59 in 5.6 mi ENE 8.1 mph - N/A   Unknown
4:30 PM 96.8 °F 121.7 °F 82.4 °F 63% 29.59 in 5.6 mi ENE 9.2 mph - N/A   Unknown
5:00 PM 95.0 °F 123.7 °F 84.2 °F 71% 29.59 in 5.0 mi NE 8.1 mph - N/A   Unknown
5:30 PM 95.0 °F 123.7 °F 84.2 °F 71% 29.59 in 4.3 mi NE 9.2 mph - N/A   Unknown
6:00 PM 93.2 °F 124.9 °F 86.0 °F 79% 29.59 in 3.7 mi NNE 10.4 mph - N/A   Unknown
6:30 PM 93.2 °F 120.9 °F 84.2 °F 75% 29.59 in 3.7 mi NNE 10.4 mph - N/A   Unknown
7:00 PM 93.2 °F 120.9 °F 84.2 °F 75% 29.62 in 4.3 mi NE 9.2 mph - N/A   Unknown
7:30 PM 93.2 °F 117.1 °F 82.4 °F 71% 29.62 in 4.3 mi NE 8.1 mph - N/A   Unknown
8:00 PM 93.2 °F 113.6 °F 80.6 °F 67% 29.62 in 3.7 mi NNE 8.1 mph - N/A   Unknown
8:30 PM 93.2 °F 117.1 °F 82.4 °F 71% 29.65 in 4.3 mi NNE 8.1 mph - N/A   Unknown
9:00 PM 92 °F - 84 °F 72% 29.67 in 4 mi NNE 10.4 mph - -   Haze
9:00 PM 93.2 °F 120.9 °F 84.2 °F 75% 29.65 in 4.3 mi NNE 10.4 mph - N/A   Unknown
9:30 PM 93.2 °F 120.9 °F 84.2 °F 75% 29.65 in 4.3 mi North 9.2 mph - N/A   Unknown
10:00 PM 93.2 °F 120.9 °F 84.2 °F 75% 29.65 in 4.3 mi North 8.1 mph - N/A   Unknown
10:30 PM 91.4 °F 114.3 °F 82.4 °F 75% 29.65 in 4.3 mi North 6.9 mph - N/A   Unknown
11:00 PM 91.4 °F 114.3 °F 82.4 °F 75% 29.65 in 4.3 mi NNE 4.6 mph - N/A   Unknown
11:30 PM 91.4 °F 114.3 °F 82.4 °F 75% 29.65 in 4.3 mi NNE 3.5 mph - N/A   Unknown